Content
SEND FEEDBACK

Daily
Averages
Monthly
Summary
United States of America

DES PLAINES, ILLINOIS


Home > North America > United States > Illinois
Elevation: 651 feet     Latitude: 42 00N     Longitude: 087 54W

WEATHER
 
SELECT A DAY
Number of Records: 199,610;   Date Range: 7/8/95 - 12/19/14
 
SHARE

PRINT THIS DATA

[ ← Previous Day ]
WEATHER ALMANAC - FEBRUARY 16, 2013
[ Next Day → ]
[ °C ]   °F
Weather ElementAverageHighLow
Temperature15.5 °F19.9 °F (12:52 pm)12 °F (5:52 am)
Dewpoint3.2 °F6.1 °F (12:52 pm) (7:00 pm)
Humidity58.7 %67 % (4:52 am)47 % (4:52 pm)
Barometer30.20 in30.24 in (8:52 pm)30.17 in (12:52 pm)
Wind Speed9.1 mph16.1 mph (11:52 am)
Wind Gust19.6 mph (11:52 am)
Weather ElementAverage
Visibility10 mi
Wind DirectionWNW (303 °)

Weather ElementTotal
Precipitation---
Heating Degree Days49.1 (Base 65)
Averaged from 23 records on February 16, 2013
WEATHER CONDITIONS BREAKOUT
WIND DIRECTION BREAKOUT
WEATHER BY HOUR - FEBRUARY 16, 2013
[ °C ]   °F
Local TimeTemperatureDewpointHumidityBarometerVisibilityWind DirectionWind SpeedGust SpeedPrecipitationEventsConditions
1:52 AM16.0 °F5.0 °F62 %30.19 in10.0 miNNW (330°)9.2 mphClear
2:52 AM15.1 °F3.9 °F61 %30.18 in10.0 miNW (320°)11.5 mphClear
3:52 AM14.0 °F3.9 °F64 %30.18 in10.0 miNW (310°)13.8 mphClear
4:52 AM12.9 °F3.9 °F67 %30.18 in10.0 miNW (320°)10.4 mphClear
5:52 AM12.0 °F3.0 °F67 %30.19 in10.0 miNNW (330°)8.1 mphClear
6:52 AM12.0 °F3.0 °F67 %30.20 in10.0 miNW (310°)6.9 mphClear
7:52 AM14.0 °F5.0 °F67 %30.21 in10.0 miNW (310°)9.2 mphClear
8:52 AM16.0 °F3.9 °F59 %30.21 in10.0 miWest (280°)6.9 mphMostly Cloudy
9:52 AM18.0 °F3.0 °F52 %30.21 in10.0 miNW (320°)10.4 mphOvercast
10:52 AM19.0 °F5.0 °F54 %30.21 in10.0 miNW (310°)12.7 mphOvercast
11:52 AM19.0 °F3.0 °F50 %30.19 in10.0 miNW (310°)16.1 mph19.6 mphOvercast
12:52 PM19.9 °F6.1 °F55 %30.17 in10.0 miNNW (330°)12.7 mph19.6 mphOvercast
1:52 PM19.0 °F5.0 °F54 %30.17 in10.0 miNW (310°)16.1 mph19.6 mph0.00 inOvercast
2:52 PM19.0 °F6.1 °F57 %30.17 in10.0 miNNW (340°)10.4 mph0.00 inOvercast
3:52 PM18.0 °F3.0 °F52 %30.18 in10.0 miNNW (330°)12.7 mphOvercast
4:52 PM17.1 °F0.0 °F47 %30.19 in10.0 miNW (320°)9.2 mphMostly Cloudy
5:52 PM16.0 °F1.0 °F52 %30.21 in10.0 miNW (320°)9.2 mphPartly Cloudy
6:52 PM15.1 °F1.0 °F54 %30.23 in10.0 miNNW (330°)5.8 mphScattered Clouds
7:52 PM14.0 °F1.9 °F59 %30.23 in10.0 miNW (320°)5.8 mphClear
8:52 PM12.9 °F1.9 °F62 %30.24 in10.0 miNNW (330°)3.5 mphClear
9:52 PM12.9 °F1.9 °F62 %30.24 in10.0 miWNW (300°)4.6 mphClear
10:52 PM12.0 °F1.9 °F64 %30.22 in10.0 miWNW (290°)3.5 mphClear
11:52 PM12.0 °F1.0 °F61 %30.22 in10.0 miCalmClear
Hourly data recorded from KPWK, located miles away from Des Plaines, Illinois







STORIES FROM OUR PARTNERS